Owatonna, Minnesota, United States (55060)
Lat: 44.08N, Lon: 93.23W
Wx Zone: MNZ085
Local Info
Past Weather Observations for Today

NOTE: This archive is for the closest National Weather Service station to Owatonna. Information may differ from the station used for current weather conditions.

Click here for Long-term Archive

Time Weather Temperature Dewpoint Humidity Pressure Winds Precip Visibility
07:55
Partly Cloudy
Fog And Mist
25°F / -4°C 21°F / -6°C 86% 30.21 in
(1023 mb)
SSE 6.9 mph
(SSE 11 kph)
- 5SM
07:35
Mostly Cloudy
Fog And Mist
25°F / -4°C 21°F / -6°C 86% 30.21 in
(1023 mb)
SSE 6.9 mph
(SSE 11 kph)
- 5SM
07:15
Partly Cloudy
25°F / -4°C 21°F / -6°C 86% 30.24 in
(1024 mb)
SSE 6.9 mph
(SSE 11 kph)
- 7SM
06:55
Mostly Cloudy
Fog And Mist
25°F / -4°C 21°F / -6°C 86% 30.21 in
(1023 mb)
SSE 6.9 mph
(SSE 11 kph)
- 5SM
06:35
Overcast
25°F / -4°C 21°F / -6°C 86% 30.24 in
(1024 mb)
SSE 9.2 mph
(SSE 15 kph)
- 7SM
06:15
Overcast
25°F / -4°C 21°F / -6°C 86% 30.24 in
(1024 mb)
SSE 8.1 mph
(SSE 13 kph)
- 7SM
05:55
Overcast
25°F / -4°C 19°F / -7°C 80% 30.24 in
(1024 mb)
SSE 6.9 mph
(SSE 11 kph)
- 7SM
05:35
Mostly Cloudy
25°F / -4°C 19°F / -7°C 80% 30.24 in
(1024 mb)
SSE 5.8 mph
(SSE 9 kph)
- 7SM
05:15
Partly Cloudy
25°F / -4°C 19°F / -7°C 80% 30.24 in
(1024 mb)
SSE 6.9 mph
(SSE 11 kph)
- 7SM
04:55
Mostly Cloudy
25°F / -4°C 19°F / -7°C 80% 30.24 in
(1024 mb)
SSE 6.9 mph
(SSE 11 kph)
- 7SM
04:35
Mostly Cloudy
25°F / -4°C 19°F / -7°C 80% 30.24 in
(1024 mb)
SSE 8.1 mph
(SSE 13 kph)
- 7SM
04:15
Overcast
23°F / -5°C 19°F / -7°C 86% 30.24 in
(1024 mb)
SSE 5.8 mph
(SSE 9 kph)
- 7SM
03:55
Overcast
23°F / -5°C 19°F / -7°C 86% 30.24 in
(1024 mb)
SSE 6.9 mph
(SSE 11 kph)
- 7SM
03:35
Overcast
23°F / -5°C 19°F / -7°C 86% 30.24 in
(1024 mb)
SSE 3.5 mph
(SSE 6 kph)
- 7SM
03:15
Overcast
23°F / -5°C 19°F / -7°C 86% 30.24 in
(1024 mb)
SE 5.8 mph
(SE 9 kph)
- 7SM
02:55
Overcast
23°F / -5°C 18°F / -8°C 80% 30.24 in
(1024 mb)
SE 3.5 mph
(SE 6 kph)
- 7SM
02:35
Overcast
23°F / -5°C 18°F / -8°C 80% 30.24 in
(1024 mb)
SE 5.8 mph
(SE 9 kph)
- 7SM
02:15
Overcast
23°F / -5°C 18°F / -8°C 80% 30.24 in
(1024 mb)
SE 4.6 mph
(SE 7 kph)
- 7SM
01:55
Overcast
23°F / -5°C 18°F / -8°C 80% 30.24 in
(1024 mb)
SSE 4.6 mph
(SSE 7 kph)
- 7SM
01:35
Overcast
21°F / -6°C 18°F / -8°C 86% 30.24 in
(1024 mb)
SE 5.8 mph
(SE 9 kph)
- 7SM
01:15
Overcast
21°F / -6°C 18°F / -8°C 86% 30.24 in
(1024 mb)
SE 4.6 mph
(SE 7 kph)
- 7SM
00:55
Overcast
21°F / -6°C 18°F / -8°C 86% 30.24 in
(1024 mb)
SE 4.6 mph
(SE 7 kph)
- 7SM
00:35
Overcast
21°F / -6°C 18°F / -8°C 86% 30.24 in
(1024 mb)
SE 5.8 mph
(SE 9 kph)
- 7SM
00:15
Overcast
21°F / -6°C 18°F / -8°C 86% 30.24 in
(1024 mb)
Calm - 7SM
Time Weather Temperature Dewpoint Humidity Pressure Winds Precip Visibility


Weather for websites

WeatherForYou.com, LLC is not responsible for any damages or problems caused by this service. Current weather conditions are obtained from the closest station including government and personal stations which may have varying degrees of accuracy. Weather forecasts are derived from the NOAA NDFD. Like all things, this site belongs to Jesus Christ... He just trusts me to maintain it. If you have any questions or comments email webmaster@weatherforyou.com

Copyright © 2014, WeatherForYou.com LLC. All rights reserved.